SL-16 DEB, 22400

Orbit data source: Space-Track

SL-16 DEB, 22400 is space debris in LEO originally from a launch on Fri, 25 Dec 1992 UTC launched from the Tyuratam Missile And Space Complex (TTMTR). Debris objects in space refer to the collection of defunct objects orbiting the Earth. Examples of debris include non-operational satellites, rocket bodies, and fragments generated from explosions, collisions, or faulty payload assembly.

Loading next visibility...
Identifier
22400, 1992-093CR
Orbit
LEO
Country
Flag of CISCIS
Related business
Manufacturer
Unknown
Mission
Spacecraft
Bus & Motor
Unknown
Mass
Unknown
Launch date (UTC)
1992-12-25 (33 years ago)
Launch vehicle
Unknown
Launch site
Tyuratam Missile And Space Complex (TTMTR)
Object type
Payload
Rocket body
Debris
Shape & HBR
Unknown shape, 0.1 m
Radar Cross Section
Small (<0.1 m²)

Expand to show TLE details & history
Last TLE update: 2 days ago

TLE from 2 days ago
0 SL-16 DEB
1 22400U 92093CR  25306.02167343  .00000350  00000-0  29526-3 0  9998
2 22400  71.2388 273.3749 0159028 255.1379 178.5065 13.88708953661491
Epoch: 2025-11-02T00:31Z
TLE epoch observation values (Epoch: 2025-11-02T00:31:12.584Z)
Latitude
65.43447°
Longitude
-88.30085°
Altitude
1,060.178 km
Speed
7.27 km/s
True Right ascension
21h 24m 10s
True Declination
65° 18' 34"
Sunlit
Object was in daylight at epoch
Visualization orbit readout
Latitude
Unknown
Longitude
Unknown
Altitude
Unknown
Speed
Unknown
Apparent Right ascension
Unknown
Apparent Declination
Unknown
Sunlit
N/A
Visualization observer readout
Local Sidereal Time
08:50:02
Azimuth
Unknown
Elevation
Unknown
Doppler factor
Unknown
Orbital elements
Apogee altitude
1,047.323 km
Perigee altitude
814.849 km
Semi-major axis
7,309.223 km
Eccentricity
0.0159
Inclination
71.2388°
RAAN
273.3749°
Arg. of periapsis
255.1379°
True anomaly
178.55307°
Mean anomaly
178.5065°
Eccentric anomaly
178.52988°
Mean motion
3.47325 °/min
Orbital period
103.65 mins
BSTAR
0.00029526
Loading maneuver chart data...
Computing Atmospheric mass density...
Loading historical data...
Loading historical data...
Loading historical data...
Loading historical data...
Loading historical data...
Loading historical data...
Loading historical data...

Documentation

Showing up to 5 results
|